Location: Croydon
(51.3762°N, 0.0982°W)
Time: 12:16:50
(UTC+00:00)

S-56A Canister/Altair - All Passes

Search period start: 19 November 2019 00:00
Search period end: 29 November 2019 00:00
Orbit: 634 x 2498 km, 38.9° (Epoch: 17 November)

Date Brightness Start Highest point End Pass type
(mag) Time Alt. Az. Time Alt. Az. Time Alt. Az.
19 Nov - 15:27:09 10° S 15:32:32 15° SSE 15:37:02 10° ESE daylight
19 Nov - 17:28:43 10° SW 17:36:01 27° S 17:41:24 10° ESE visible
19 Nov - 19:33:07 10° WSW 19:39:10 26° S 19:43:44 10° SE visible
19 Nov - 21:39:05 10° WSW 21:41:34 13° SSW 21:43:50 10° S visible
20 Nov - 14:54:20 10° S 14:59:43 15° SSE 15:04:16 10° ESE daylight
20 Nov - 16:55:26 10° SW 17:03:17 27° SSE 17:09:03 10° ESE visible
20 Nov - 18:59:50 10° WSW 19:06:35 29° S 19:11:32 10° SE visible
20 Nov - 21:05:32 10° WSW 21:09:08 16° SSW 21:12:12 10° S visible
21 Nov - 14:21:37 10° S 14:26:51 14° SSE 14:31:22 10° ESE daylight
21 Nov - 16:22:09 10° SW 16:30:30 27° SSE 16:36:39 10° ESE daylight
21 Nov - 18:26:29 10° WSW 18:33:56 31° S 18:39:19 10° SE visible
21 Nov - 20:32:04 10° WSW 20:36:39 19° SSW 20:40:23 10° SSE visible
22 Nov - 13:49:03 10° S 13:53:58 13° SE 13:58:18 10° ESE daylight
22 Nov - 15:48:50 10° SSW 15:57:40 27° SSE 16:04:12 10° ESE daylight
22 Nov - 17:53:04 10° WSW 18:01:15 33° S 18:07:05 10° ESE visible
22 Nov - 19:58:38 10° WSW 20:04:09 22° SSW 20:08:26 10° SSE visible
23 Nov - 13:16:42 10° SSE 13:21:03 12° SE 13:24:59 10° ESE daylight
23 Nov - 15:15:33 10° SSW 15:24:46 27° SSE 15:31:41 10° ESE daylight
23 Nov - 17:19:37 10° WSW 17:28:31 34° S 17:34:47 10° ESE visible
23 Nov - 19:25:10 10° WSW 19:31:36 25° SSW 19:36:25 10° SSE visible
24 Nov - 12:44:44 10° SSE 12:48:07 11° SE 12:51:16 10° SE daylight
24 Nov - 14:42:18 10° SSW 14:51:50 26° SSE 14:59:06 10° ESE daylight
24 Nov - 16:46:08 10° WSW 16:55:42 35° S 17:02:26 10° ESE visible
24 Nov - 18:51:41 10° WSW 18:59:00 28° SSW 19:04:20 10° SE visible
24 Nov - 20:59:56 10° SW 21:01:09 11° SW 21:02:19 10° SSW visible
25 Nov - 12:14:00 10° SE 12:15:10 10° SE 12:16:20 10° SE daylight
25 Nov - 14:09:05 10° SSW 14:18:51 26° SSE 14:26:27 10° ESE daylight
25 Nov - 16:12:37 10° SW 16:22:51 36° S 16:30:04 10° ESE daylight
25 Nov - 18:18:09 10° WSW 18:26:21 31° SSW 18:32:11 10° SE visible
25 Nov - 20:25:17 10° WSW 20:28:42 14° SW 20:31:39 10° S visible
26 Nov - 13:35:55 10° SSW 13:45:49 25° SSE 13:53:43 10° ESE daylight
26 Nov - 15:39:06 10° SW 15:49:55 37° S 15:57:37 10° ESE daylight
26 Nov - 17:44:34 10° WSW 17:53:38 34° SSW 18:00:00 10° SE visible
26 Nov - 19:51:20 10° WSW 19:56:12 17° SW 20:00:11 10° S visible
27 Nov - 13:02:51 10° SSW 13:12:46 24° SSE 13:20:52 10° ESE daylight
27 Nov - 15:05:36 10° SW 15:16:56 37° S 15:25:07 10° ESE daylight
27 Nov - 17:10:58 10° WSW 17:20:51 37° S 17:27:44 10° SE visible
27 Nov - 19:17:32 10° WSW 19:23:40 20° SW 19:28:27 10° SSE visible
28 Nov - 12:29:54 10° S 12:39:41 23° SSE 12:47:55 10° ESE daylight
28 Nov - 14:32:07 10° SW 14:43:52 37° SSE 14:52:34 10° ESE daylight
28 Nov - 16:37:20 10° WSW 16:47:59 39° S 16:55:25 10° ESE visible
28 Nov - 18:43:48 10° W 18:51:05 24° SSW 18:56:33 10° SSE visible
